Location: Kalberh�ni
(46.4610°N, 7.2453°E)
Time: 01:08:18
(UTC+00:00)

ALOS 2 - Pass Details

Date: 20 June 2021
Orbit: 630 x 632 km, 97.9° (Epoch: 25 July)

Event Time Altitude Azimuth Distance (km) Brightness Sun altitude
Exits shadow 23:35:23 32° 236° (SW) 1,084 3.5 -20.1°
Maximum altitude 23:36:18 36° 263° (W) 1,010 3.5 -20.1°
Drops below altitude 10° 23:40:22 10° 330° (NNW) 2,024 6.0 -20.1°
Sets 23:42:44 0° 339° (NNW) 2,937 7.2 -20.1°
